#timestamp,LO_Frequency,Hit,StdDev 
1507759215.4,286046994.7,N
1507759235.2,286046993.9,Y
1507759255.1,286047001.7,P
1507759256.0,286047001.7,N
1507759275.8,286047003.0,N
1507759295.6,286047001.6,N
1507759315.4,286047000.2,N
1507759335.3,286046997.2,N
1507759355.1,286046998.9,N
1507759375.8,286046999.2,N
1507759395.7,286047000.5,N
1507759415.5,286046995.0,N
1507759435.3,286046998.8,N
1507759455.2,286047003.5,N
1507759475.9,286047004.4,N
1507759495.7,286047001.6,N
1507759515.6,286046998.3,N
1507759535.4,286046996.5,N
1507759555.2,286047000.9,N
1507759575.1,286046998.2,N
1507759576.0,286046998.2,N
1507759595.8,286047000.8,N
1507759615.6,286047000.8,N
1507759635.5,286046998.3,N
1507759655.3,286047002.7,N
1507759675.1,286047003.8,N
1507759695.8,286047003.4,N
1507759715.7,286047003.8,N
1507759735.5,286047003.9,N
1507759755.3,286047002.1,N
1507759775.2,286047003.9,N
1507759795.9,286047005.3,N
1507759815.7,286047003.1,N
1507759835.6,286047004.2,N
1507759855.4,286047002.2,N
1507759875.2,286047000.4,N
1507759895.1,286047002.4,N
1507759896.0,286047002.4,N
1507759915.8,286047003.0,N
1507759935.6,286047004.1,N
1507759955.5,286047002.1,N
1507759975.3,286047002.4,N
1507759995.1,286047006.0,N
1507760015.8,286047005.5,N
1507760035.7,286047005.0,N
1507760055.5,286047003.0,N
1507760075.3,286047003.9,N
1507760095.2,286047004.1,N
1507760115.9,286047005.6,N
1507760135.7,286046995.5,N
1507760155.6,286046998.6,N
1507760175.4,286047005.6,N
1507760195.2,286047001.7,N
1507760215.1,286047006.5,N
1507760216.0,286047006.5,N
1507760235.8,286047009.1,Y
1507760255.6,286047004.3,P
1507760275.5,286047005.8,P
1507760295.3,286047004.6,P
1507760315.1,286047009.1,Y
1507760335.9,286047002.9,P
1507760355.7,286047003.7,P
1507760375.5,286047004.4,P
1507760395.4,286047002.0,Y
1507760415.2,286046993.2,P
1507760435.0,286046991.6,N
1507760435.9,286046991.6,N
1507760455.8,286046990.3,N
1507760475.6,286046992.6,N
1507760495.4,286046991.4,N
1507760515.3,286046992.9,N
1507760535.1,286046989.2,N
1507760536.0,286046989.2,N
1507760555.8,286046989.9,N
1507760575.7,286046989.0,N
1507760595.5,286046988.9,N
1507760615.3,286046989.6,N
1507760635.2,286046987.2,Y
1507760655.9,286046995.9,P
1507760675.7,286046992.3,P
1507760695.5,286046993.5,P
1507760715.4,286046992.4,Y
1507760735.2,286047004.3,P
1507760755.0,286047004.2,N
1507760756.0,286047004.2,N
1507760775.8,286047004.3,N
1507760795.6,286047001.2,N
1507760815.4,286047000.1,N
1507760835.3,286046999.8,N
1507760855.1,286047005.5,N
1507760875.8,286047003.0,N
1507760895.7,286047004.2,N
1507760915.5,286047002.9,N
1507760935.3,286047005.2,N
1507760955.2,286047004.7,N
1507760975.9,286047006.4,N
1507760995.7,286047007.4,N
1507761015.6,286047006.9,N
1507761035.4,286047008.7,N
1507761055.2,286047006.9,N
1507761075.0,286047006.7,N
1507761076.0,286047006.7,N
1507761095.8,286047004.9,N
1507761115.6,286047006.3,N
1507761135.4,286047007.4,N
1507761155.3,286047003.0,N
1507761175.1,286047002.6,N
1507761195.8,286046998.7,N
1507761215.7,286046995.9,N
1507761235.5,286046990.4,N
1507761255.3,286046986.9,Y
1507761275.2,286046984.4,P
1507761295.0,286046984.6,N
1507761295.9,286046984.6,N
1507761315.7,286046984.3,N
1507761335.6,286046984.1,N
1507761355.4,286046987.8,N
1507761375.2,286046991.6,N
1507761395.1,286046990.2,N
1507761396.0,286046990.2,N
1507761415.8,286046991.7,N
1507761435.6,286046992.1,N
1507761455.5,286046996.2,N
1507761475.3,286046996.3,N
1507761495.1,286046994.9,N
1507761515.9,286046995.5,N
1507761535.7,286046997.4,N
1507761555.5,286046994.9,N
1507761575.3,286046994.9,N
1507761595.2,286046995.1,N
1507761615.0,286046999.6,N
1507761615.9,286046999.6,N
1507761635.7,286046998.7,N
1507761655.6,286046998.5,N
1507761675.4,286046998.6,N
1507761695.2,286046998.6,N
1507761715.1,286047000.3,N
1507761716.0,286047000.3,N
1507761735.8,286047002.8,N
1507761755.6,286047000.6,N
1507761775.5,286047001.5,N
1507761795.3,286047000.4,N
1507761815.1,286047000.9,N
1507761835.9,286046999.6,N
1507761855.7,286047000.7,N
1507761875.5,286047001.5,N
1507761895.3,286047001.4,N
1507761915.2,286047004.4,N
1507761935.0,286047003.8,N
1507761935.9,286047003.8,N
1507761955.7,286047003.9,N
1507761975.6,286047001.9,N
1507761995.4,286047004.4,N
1507762015.2,286046999.1,N
1507762035.1,286046998.6,N
1507762036.0,286046998.6,N
1507762055.8,286047005.4,N
1507762075.6,286047007.9,N
1507762095.5,286047010.0,Y
1507762115.3,286047010.8,P
1507762135.1,286047011.9,N
1507762155.9,286047009.9,N
1507762175.7,286047009.3,N
1507762195.5,286047008.0,N
1507762215.4,286047009.5,N
1507762235.2,286047009.3,N
1507762255.0,286047009.3,N
1507762255.9,286047009.3,Y
1507762275.8,286047000.2,P
1507762295.6,286047002.4,N
1507762315.4,286047002.2,N
1507762335.3,286047002.9,N
1507762355.1,286047001.3,N
1507762356.0,286047001.3,N
1507762375.8,286047003.6,N
1507762395.7,286046999.8,N
1507762415.5,286046998.1,N
1507762435.3,286046999.6,N
1507762455.1,286046999.1,N
1507762475.9,286046999.2,N
1507762495.7,286046998.5,N
1507762515.5,286047000.6,N
1507762535.4,286047000.6,N
1507762555.2,286047001.0,N
1507762575.0,286046999.1,N
1507762575.9,286046999.1,N
1507762595.8,286047000.9,N
1507762615.6,286046997.9,N
1507762635.4,286046998.1,N
1507762655.3,286046998.6,N
1507762675.1,286047000.8,N
1507762676.0,286047000.8,N
1507762695.8,286047002.4,N
1507762715.7,286047003.1,N
1507762735.5,286047001.1,N
1507762755.3,286046999.3,N
1507762775.1,286046998.4,N
1507762795.9,286046995.1,N
